Weather in Shoyna

Russia / Nenets Autonomous Okrug     67°52′38″N   44°09′17″E
temp.,
°C
wind,
m/s
gust,
m/s
humid.,
%
clouds,
%
prec.,
mm/h
press.,
hPa
HPBL,
m
1 march, mon
mon100:00−5sw81296100 1.0 999293
03:00−4sw91495100 2.6 995409
06:00−2sw71297100 2.6 990310
09:00+1wnw101796100 5.8 987529
12:00+1wnw9159165 0.1 987561
15:00+1w7129076 0.1 987554
18:00−1w81397100 0.3 986464
21:00−1w81497100 1.1 985521
2 march, tue
tue200:00−3w7139689 0.4 984312
03:00−2w8139694 1.2 985426
06:00−2nnw51092100 0.9 986321
09:00−7wnw458383 0.9 98739
12:00−4w713810 0.0 988286
15:00−3wnw10169442 0.3 987748
18:00−2wnw111789100 0.6 986852
21:00−3nnw141990100 1.2 986724
3 march, wed
wed300:00−9nnw111887100 0.0 987522
03:00−11n11168699 0.1 991523
06:00−14n71387100 0.0 993435
09:00−16n5109095 0.0 996255
12:00−15n478976 0.0 998405
15:00−16nne369088 0.0 998387
18:00−17nne2393100 0.0 99834
21:00−19ne2394100 0.1 99821
4 march, thu
thu400:00−20nne3393100 0.0 99832
03:00−19nne3494100 0.0 99862
06:00−18n4693100 0.0 997185
09:00−17nne4893100 0.1 997376
12:00−15ne5889100 0.1 998645
15:00−16ne5991100 0.1 999581
18:00−17ne4995100 0.2 1000401
21:00−19ne4894100 0.4 1002325
5 march, fri
fri500:00−20nne479499 0.1 1003262
03:00−23nne349696 0.1 100429
06:00−24nne339665 0.0 100420
09:00−24nne229643 0.0 100420
12:00−22nw119453 0.0 100650
15:00−22nnw129668 0.0 100620
18:00−24nne119984 0.0 100720
21:00−22nne019792 0.0 100821